STARLINK-11440, 62513

Orbit data source: Space-Track

STARLINK-11440, 62513 is a payload satellite owned by SpaceX/Seattle (US) in LEO that was launched on Wed, 08 Jan 2025 UTC via an FALCON 9 launch vehicle from the Air Force Eastern Test Range (AFETR). Payload-class satellites include a variety of spacecraft equipped with specific instruments for various scientific and technological missions. These include communications satellites like Starlink; space stations such as the ISS; scientific satellites like the Hubble; Earth observation satellites from companies like Planet Labs, Umbra, and HawkEye 360; GPS; miniature CubeSats for education and research; and military/defense satellites.

Loading next visibility...
Identifier
62513, 2025-004C
Orbit
LEO
Country
Flag of USUS
Related business
Manufacturer
SpaceX/Seattle
Mission
Operational Commercial Communications
Bus & Motor
STARLINK V2MD, Unknown motor
Mass
960 kg wet, ~910 kg dry
Launch date (UTC)
2025-01-08 (10 months ago)
Launch vehicle
FALCON 9
Launch site
Air Force Eastern Test Range (AFETR)
Object type
Payload
Rocket body
Debris
Shape & HBR
Box + 2 Pan, 18.1 m
Radar Cross Section
36.964 m², Large (>1 m²)

Expand to show TLE details & history
Last TLE update: 9 hours ago

TLE from 9 hours ago
0 STARLINK-11440
1 62513U 25004C   25308.79529397  .00344850  00000-0  25497-2 0  9990
2 62513  43.0006 103.7544 0006167 269.2636  90.7525 15.71118632 47565
Epoch: 2025-11-04T19:05Z
TLE epoch observation values (Epoch: 2025-11-04T19:05:13.399Z)
Latitude
-0.00001°
Longitude
133.17137°
Altitude
355.527 km
Speed
7.698 km/s
True Right ascension
06h 55m 01s
True Declination
0° 00' 00"
Sunlit
Object was in full shadow at epoch
Visualization orbit readout
Latitude
Unknown
Longitude
Unknown
Altitude
Unknown
Speed
Unknown
Apparent Right ascension
Unknown
Apparent Declination
Unknown
Sunlit
N/A
Visualization observer readout
Local Sidereal Time
00:23:50
Azimuth
Unknown
Elevation
Unknown
Doppler factor
Unknown
Orbital elements
Apogee altitude
361.834 km
Perigee altitude
353.527 km
Semi-major axis
6,735.818 km
Eccentricity
0.00062
Inclination
43.0006°
RAAN
103.7544°
Arg. of periapsis
269.2636°
True anomaly
90.82316°
Mean anomaly
90.7525°
Eccentric anomaly
90.78783°
Mean motion
3.92607 °/min
Orbital period
91.69 mins
BSTAR
0.0025497
Loading maneuver chart data...
Computing Atmospheric mass density...
Loading historical data...
Loading historical data...
Loading historical data...
Loading historical data...
Loading historical data...
Loading historical data...
Loading historical data...

Documentation

Showing up to 5 results
|